User: anonymous   Login
Location: Unspecified
(0.0000°N, 0.0000°E)
Time: 13:55:22
(UTC+02:00)
Language:

Cosmos 1515 Rocket - Orbit

View from above orbital plane
View from above orbital plane
View from above satellite
View from above satellite

Ground track
Ground track

The orbit data is extracted from the following two-line orbital elements,

1 14552U 83122B   16206.58600677  .00000089  00000-0  79100-5 0  9996
2 14552  82.5233  23.2997 0017889 154.8146 205.3945 14.83345959760615
Epoch (UTC): 24 July 2016 14:03:50
Eccentricity: 0.0017889
inclination: 82.5233°
perigee height: 606 km
apogee height: 631 km
right ascension of ascending node: 23.2997°
argument of perigee: 154.8146°
revolutions per day: 14.83345959
mean anomaly at epoch: 205.3945°
orbit number at epoch: 76061

The dashed part of the orbit path shows where the satellite is in the earth's shadow,  

DLR